Flag for San Marino Weather past 2 weeks in San Marino, San Marino

Now
70 °F

Clear.


Feels Like: 70 °F
Forecast: 55 / 64 °F
Wind: N/A

Location: Rimini Airport

Current Time: Sep 21, 2014 at 10:48:27 PM

Latest Report: Sep 21, 2014 at 9:45 PM


Visibility: 10 mi

Pressure: 29.89 "Hg

Humidity: 94%

Dew point: 68 °F

Location of San MarinoLocation

Historic Weather in San Marino — Graph

°F

San Marino temperature yesterday

Maximum temperature yesterday: 75 °F (at 11:15 AM)
Minimum temperature yesterday: 66 °F (at 7:45 AM)
Average temperature yesterday: 71 °F

Past Weeks' High & Low Weather Summary

 TemperatureHumidityPressure
High77 °F (Sep 7, 3:45 PM)100% (Sep 7, 10:45 PM)30.09 "Hg (Sep 7, 10:45 PM)
Low55 °F (Sep 13, 5:15 AM)2% (Sep 7, 8:45 PM)29.77 "Hg (Sep 11, 5:15 AM)
Average68 °F88%29.96 "Hg
* Reported Sep 6 9:15 PM — Sep 21 9:45 PM, San Marino, Weather by CustomWeather, © 2014

Note: Actual official high and low records may vary slightly from our data, if they occured in-between our weather recording intervals... More about our weather records

Advertising

San Marino weather history for previous 24 hours

 ConditionsComfort  
Time TempWeatherWind HumidityBarometerVisibility
9:45 PM
Sep 21
70 °FClear.N/A94%29.89 "Hg10 mi
9:15 PM70 °FClear.N/A94%29.89 "Hg10 mi
8:45 PM70 °FClear.N/A94%29.89 "Hg10 mi
8:15 PM72 °FClear.N/A94%29.89 "Hg10 mi
7:45 PM73 °FSunny.N/A94%29.89 "Hg10 mi
7:15 PM73 °FClear.N/A94%29.89 "Hg5 mi
6:45 PM73 °FClear.N/A94%29.89 "HgN/A
5:45 PM75 °FFog.N/A89%29.92 "Hg3 mi
4:45 PM73 °FFog.N/A94%29.92 "Hg2 mi
4:15 PM73 °FFog.N/A94%29.92 "Hg2 mi
3:15 PM75 °FFog.N/A89%29.95 "Hg2 mi
2:45 PM75 °FFog.N/A83%29.95 "Hg3 mi
1:20 PM75 °FMild.9 mph89%29.98 "HgN/A
12:15 PM75 °FFog.N/A83%29.98 "Hg3 mi
11:45 AM73 °FFog.N/A89%29.98 "Hg3 mi
11:15 AM73 °FFog.N/A89%29.98 "Hg3 mi
10:45 AM73 °FClear.N/A83%29.98 "Hg4 mi
10:15 AM73 °FClear.N/A83%29.98 "Hg4 mi
9:45 AM72 °FClear.N/A88%29.98 "Hg5 mi
9:15 AM72 °FFog.N/A94%29.98 "Hg2 mi
8:45 AM70 °FFog.N/A94%29.98 "Hg1 mi
8:15 AM68 °FMild.N/A94%29.98 "HgN/A
7:45 AM66 °FFog.N/A94%29.98 "Hg1 mi
6:45 AM66 °FFog.N/A94%29.98 "Hg2 mi
2:15 AM72 °FPassing clouds.N/A94%30.01 "HgN/A
1:15 AM72 °FPassing clouds.N/A94%29.98 "HgN/A
12:45 AM72 °FPassing clouds.N/A94%29.98 "HgN/A
11:45 PM
Sep 20
72 °FPassing clouds.N/A94%29.98 "HgN/A
10:45 PM72 °FPassing clouds.N/A94%29.98 "HgN/A
Weather by CustomWeather, © 2014

See weather overviewHow to use our weather pages